Escanaba, MI

3:49 AM EST on February 20, 2018 (GMT -0500)
Delta County

Weather History for KESC - April, 2013

Change the Weather History Date:

Thursday, April 18, 2013

  Actual Average Record
Temperature  
Mean Temperature 37 °F -  
Max Temperature 42 °F 46 °F 75 °F (1952)
Min Temperature 35 °F 32 °F 19 °F (1983)
Degree Days  
Heating Degree Days 28    
Moisture  
Dew Point 34 °F    
Average Humidity 87    
Maximum Humidity 93    
Minimum Humidity 65    
Precipitation  
Precipitation 0.08 in - - ()
Sea Level Pressure  
Sea Level Pressure 29.67 in    
Wind  
Wind Speed 9 mph (NE)    
Max Wind Speed 15 mph    
Max Gust Speed 21 mph    
Visibility 6 miles    
Events      
Averages and records for this station are not official NWS values.
T = Trace of Precipitation, MM = Missing Value Source: NWS Daily Summary

Daily Weather History Graph

Daily Weather History Graph

Search for Another Location

Airport or City:

Trip Planner

Search our weather history database for the weather conditions in past years. The results will help you decide how hot, cold, wet, or windy it might be!

Date:

Astronomy

Apr. 18, 2013 Rise Set
Actual Time 6:56 AM EDT 8:39 PM EDT
Civil Twilight 6:25 AM EDT 9:10 PM EDT
Nautical Twilight 5:47 AM EDT 9:49 PM EDT
Astronomical Twilight 5:05 AM EDT 10:30 PM EDT
Moon 1:04 PM EDT (4/18) 2:57 AM EDT (4/18)
Length of Visible Light 14h 45m
Length of Day
13h 42m
First Quarter, 51% of the Moon is Illuminated
Apr 18
First Quarter
Apr 25
Full
May 2
Last Quarter
May 9
New
May 18
First Quarter

Hourly Weather History & Observations

Time (EDT) Temp. Windchill Dew Point Humidity Pressure Visibility Wind Dir Wind Speed Gust Speed Precip Events Conditions
12:15 AM 39.2 °F 30.8 °F 28.4 °F 65% 30.04 in 10.0 mi East 15.0 mph 19.6 mph N/A   Overcast
12:35 AM 37.4 °F 28.5 °F 28.4 °F 70% 30.04 in 10.0 mi East 15.0 mph 19.6 mph N/A   Overcast
12:55 AM 37.4 °F 29.3 °F 30.2 °F 75% 30.05 in 10.0 mi East 12.7 mph 18.4 mph N/A   Overcast
1:15 AM 37.4 °F 28.9 °F 30.2 °F 75% 30.04 in 10.0 mi East 13.8 mph - N/A   Overcast
1:35 AM 37.4 °F 30.3 °F 30.2 °F 75% 30.03 in 10.0 mi ENE 10.4 mph - N/A   Overcast
1:55 AM 37.4 °F 30.8 °F 30.2 °F 75% 30.02 in 6.0 mi ENE 9.2 mph - N/A   Overcast
2:15 AM 35.6 °F 29.9 °F 32.0 °F 87% 30.00 in 5.0 mi ENE 6.9 mph - N/A   Overcast
2:35 AM 35.6 °F 28.6 °F 30.2 °F 81% 29.98 in 5.0 mi ENE 9.2 mph - N/A   Overcast
2:55 AM 35.6 °F 29.2 °F 30.2 °F 81% 29.96 in 3.0 mi ENE 8.1 mph - N/A   Overcast
3:15 AM 35.6 °F 30.7 °F 30.2 °F 81% 29.94 in 4.0 mi ENE 5.8 mph - N/A   Overcast
3:35 AM 35.6 °F 29.9 °F 32.0 °F 87% 29.92 in 4.0 mi ENE 6.9 mph - N/A   Overcast
3:55 AM 35.6 °F 29.2 °F 32.0 °F 87% 29.88 in 5.0 mi ENE 8.1 mph - N/A   Overcast
4:15 AM 35.6 °F 29.2 °F 32.0 °F 87% 29.86 in 5.0 mi ENE 8.1 mph - N/A   Overcast
4:35 AM 35.6 °F 27.5 °F 32.0 °F 87% 29.84 in 6.0 mi ENE 11.5 mph 18.4 mph N/A   Overcast
4:55 AM 35.6 °F 28.0 °F 30.2 °F 81% 29.84 in 7.0 mi ENE 10.4 mph 17.3 mph N/A   Overcast
5:15 AM 35.6 °F 28.6 °F 32.0 °F 87% 29.83 in 5.0 mi ENE 9.2 mph - N/A   Overcast
5:35 AM 35.6 °F 29.2 °F 32.0 °F 87% 29.82 in 5.0 mi NE 8.1 mph - N/A   Overcast
5:55 AM 35.6 °F 29.2 °F 32.0 °F 87% 29.80 in 4.0 mi NE 8.1 mph - N/A   Overcast
6:15 AM 35.6 °F 29.2 °F 32.0 °F 87% 29.79 in 5.0 mi NE 8.1 mph - N/A   Overcast
6:35 AM 35.6 °F 32.8 °F 33.8 °F 93% 29.79 in 4.0 mi NNE 3.5 mph - N/A   Overcast
6:55 AM 35.6 °F 30.7 °F 32.0 °F 87% 29.79 in 4.0 mi North 5.8 mph - N/A   Overcast
7:15 AM 35.6 °F 30.7 °F 33.8 °F 93% 29.77 in 4.0 mi NE 5.8 mph - N/A   Overcast
7:35 AM 35.6 °F 28.6 °F 33.8 °F 93% 29.75 in 3.0 mi NE 9.2 mph - N/A   Overcast
7:55 AM 35.6 °F 29.2 °F 33.8 °F 93% 29.74 in 5.0 mi NE 8.1 mph - N/A   Overcast
8:15 AM 35.6 °F 29.2 °F 33.8 °F 93% 29.74 in 5.0 mi NE 8.1 mph - N/A   Overcast
8:35 AM 35.6 °F 28.6 °F 33.8 °F 93% 29.73 in 4.0 mi NE 9.2 mph - N/A   Overcast
8:55 AM 35.6 °F 28.6 °F 33.8 °F 93% 29.73 in 5.0 mi NNE 9.2 mph - N/A   Overcast
9:15 AM 37.4 °F 32.8 °F 33.8 °F 87% 29.72 in 2.0 mi NE 5.8 mph - N/A   Overcast
9:35 AM 37.4 °F 32.1 °F 33.8 °F 87% 29.71 in 2.0 mi NNE 6.9 mph - N/A   Overcast
9:55 AM 37.4 °F 31.4 °F 33.8 °F 87% 29.69 in 1.8 mi NNE 8.1 mph - N/A   Overcast
10:15 AM 37.4 °F 31.4 °F 33.8 °F 87% 29.67 in 4.0 mi NE 8.1 mph - N/A   Overcast
10:35 AM 37.4 °F 32.1 °F 33.8 °F 87% 29.67 in 6.0 mi NNE 6.9 mph - N/A   Overcast
10:55 AM 37.4 °F 31.4 °F 33.8 °F 87% 29.67 in 10.0 mi NE 8.1 mph - N/A   Overcast
11:15 AM 37.4 °F 31.4 °F 33.8 °F 87% 29.66 in 10.0 mi NE 8.1 mph - N/A   Overcast
11:35 AM 37.4 °F 31.4 °F 35.6 °F 93% 29.64 in 5.0 mi ENE 8.1 mph - N/A   Overcast
11:55 AM 37.4 °F 30.8 °F 35.6 °F 93% 29.63 in 5.0 mi ENE 9.2 mph - N/A   Overcast
12:15 PM 37.4 °F 31.4 °F 35.6 °F 93% 29.63 in 5.0 mi ENE 8.1 mph - N/A   Overcast
12:35 PM 39.2 °F 33.6 °F 35.6 °F 87% 29.63 in 3.0 mi NE 8.1 mph - N/A   Overcast
12:55 PM 39.2 °F 33.0 °F 35.6 °F 87% 29.61 in 3.0 mi NE 9.2 mph - N/A   Overcast
1:15 PM 39.2 °F 34.2 °F 35.6 °F 87% 29.60 in 4.0 mi ENE 6.9 mph - N/A   Overcast
1:35 PM 39.2 °F 33.0 °F 35.6 °F 87% 29.57 in 3.0 mi ENE 9.2 mph - N/A   Overcast
1:55 PM 39.2 °F 33.0 °F 37.4 °F 93% 29.55 in 3.0 mi ENE 9.2 mph - N/A   Overcast
2:15 PM 39.2 °F 33.0 °F 37.4 °F 93% 29.57 in 5.0 mi ENE 9.2 mph - N/A   Overcast
2:35 PM 39.2 °F - 35.6 °F 87% 29.59 in 4.0 mi Calm Calm - N/A   Overcast
2:55 PM 39.2 °F 35.9 °F 35.6 °F 87% 29.59 in 8.0 mi North 4.6 mph - N/A   Overcast
3:15 PM 39.2 °F 33.6 °F 35.6 °F 87% 29.60 in 5.0 mi NW 8.1 mph - N/A   Overcast
3:35 PM 39.2 °F 37.0 °F 37.4 °F 93% 29.60 in 1.5 mi North 3.5 mph - N/A   Overcast
3:55 PM 39.2 °F 35.9 °F 37.4 °F 93% 29.61 in 2.5 mi NNW 4.6 mph - N/A   Overcast
4:35 PM 39.2 °F 35.0 °F 37.4 °F 93% 29.60 in 2.0 mi North 5.8 mph - N/A   Overcast
4:55 PM 39.2 °F 33.6 °F 37.4 °F 93% 29.56 in 3.0 mi NNE 8.1 mph - N/A   Overcast
5:15 PM 39.2 °F 35.9 °F 37.4 °F 93% 29.54 in 9.0 mi North 4.6 mph - N/A   Overcast
5:35 PM 39.2 °F 33.6 °F 35.6 °F 87% 29.55 in 10.0 mi NNE 8.1 mph - N/A   Overcast
5:55 PM 39.2 °F 33.6 °F 35.6 °F 87% 29.55 in 10.0 mi NE 8.1 mph - N/A   Overcast
6:15 PM 39.2 °F 33.6 °F 35.6 °F 87% 29.54 in 7.0 mi NE 8.1 mph - N/A   Overcast
6:35 PM 39.2 °F 33.6 °F 35.6 °F 87% 29.54 in 10.0 mi NE 8.1 mph - N/A   Overcast
6:55 PM 39.2 °F 33.0 °F 35.6 °F 87% 29.53 in 10.0 mi NE 9.2 mph - N/A   Overcast
7:15 PM 39.2 °F 33.0 °F 35.6 °F 87% 29.51 in 10.0 mi NE 9.2 mph - N/A   Overcast
7:35 PM 37.4 °F 31.4 °F 35.6 °F 93% 29.50 in 10.0 mi NE 8.1 mph - N/A   Overcast
7:55 PM 37.4 °F 32.1 °F 35.6 °F 93% 29.51 in 7.0 mi ENE 6.9 mph - N/A   Overcast
8:15 PM 37.4 °F 32.8 °F 35.6 °F 93% 29.50 in 1.5 mi ENE 5.8 mph - N/A   Overcast
8:35 PM 37.4 °F 32.1 °F 35.6 °F 93% 29.47 in 2.5 mi ENE 6.9 mph - N/A   Overcast
8:55 PM 37.4 °F 31.4 °F 35.6 °F 93% 29.44 in 4.0 mi ENE 8.1 mph - 0.01 in   Overcast
9:15 PM 39.2 °F 32.5 °F 35.6 °F 87% 29.44 in 10.0 mi East 10.4 mph - N/A   Overcast
9:35 PM 39.2 °F 32.5 °F 35.6 °F 87% 29.42 in 7.0 mi ENE 10.4 mph - N/A   Overcast
9:55 PM 39.2 °F 31.6 °F 35.6 °F 87% 29.39 in 10.0 mi ENE 12.7 mph - N/A   Overcast
10:15 PM 39.2 °F 31.6 °F 35.6 °F 87% 29.39 in 7.0 mi East 12.7 mph 20.7 mph N/A   Overcast
10:35 PM 39.2 °F 33.0 °F 35.6 °F 87% 29.38 in 4.0 mi East 9.2 mph 18.4 mph 0.01 in   Overcast
10:55 PM 39.2 °F 33.6 °F 35.6 °F 87% 29.36 in 4.0 mi East 8.1 mph - 0.03 in   Overcast
11:35 PM 39.2 °F 33.6 °F 35.6 °F 87% 29.30 in 2.5 mi East 8.1 mph - 0.02 in   Overcast
11:55 PM 39.2 °F 35.0 °F 35.6 °F 87% 29.28 in 4.0 mi NE 5.8 mph - 0.04 in   Overcast